Overview Statistics Trail Chart Weather Telemetry Raw packets
 

This is the latest recevied weather packets stored in our database for station/object K5KVN. If no packets are shown the sender has not sent any weather packets the latest 10 day(s).

<< 53 54 55 56 57 58 >>
Time Temp. Humidity Pressure Rain* Wind** Luminosity Snow
1787862484 33.89° C 46% 1017.7 hPa 0 mm - - -
1787861884 34.44° C 45% 1017.9 hPa 0 mm - - -
1787861284 33.89° C 45% 1017.8 hPa 0 mm - - -
1787860682 33.89° C 48% 1018.1 hPa 0 mm - - -
1787860082 33.89° C 47% 1018.1 hPa 0 mm - - -
1787859484 33.89° C 47% 1018.2 hPa 0 mm - - -
1787858881 33.89° C 48% 1018.3 hPa 0 mm - - -
1787858282 33.89° C 48% 1018.3 hPa 0 mm - - -
1787857681 33.89° C 48% 1018.6 hPa 0 mm - - -
1787857081 33.89° C 47% 1018.6 hPa 0 mm - - -
1787856479 32.78° C 52% 1018.6 hPa 0 mm - - -
1787855880 32.78° C 51% 1018.8 hPa 0 mm - - -
1787855280 33.33° C 51% 1019 hPa 0 mm - - -
1787854679 33.33° C 53% 1019 hPa 0 mm - - -
1787854138 33.33° C 51% 1019 hPa 0 mm - - -
1787853476 33.33° C 54% 1019.1 hPa 0 mm - - -
1787852880 33.33° C 53% 1019.2 hPa 0 mm - - -
1787852274 33.33° C 54% 1019.3 hPa 0 mm - - -
1787851740 32.78° C 53% 1019.4 hPa 0 mm - - -
1787851076 32.78° C 55% 1019.4 hPa 0 mm - - -
1787850534 32.22° C 56% 1019.4 hPa 0 mm - - -
1787849872 32.22° C 57% 1019.6 hPa 0 mm - - -
1787849271 31.67° C 59% 1019.8 hPa 0 mm - - -
1787848670 31.11° C 59% 1019.9 hPa 0 mm - - -
1787848070 31.11° C 61% 1019.8 hPa 0 mm - - -

* Rain latest hour (hover to see other rain measurements)
** Current wind speed in m/s (hover to see current wind gust speed)